KM5RF Weather Reports


Display with metric or nautical units.
time (UTC)temp
F
wind
direction
speed
MPH
gust
MPH
rain 1hr
in
rain 24hr
in
rain mn
in
humidity
%
barometer
mb
20260507124527 52 307 0.0 0.0 0.00 0.01 0.00 83 1020.1
20260507123034 52 307 0.0 0.0 0.00 0.01 0.00 84 1020.0
20260507121527 51 307 0.0 0.0 0.00 0.01 0.00 83 1020.4
20260507120018 51 307 0.0 1.0 0.00 0.01 0.00 83 1020.4
20260507114522 51 298 0.0 1.0 0.00 0.01 0.00 83 1020.2
20260507113027 51 304 0.0 3.0 0.00 0.01 0.00 83 1019.8
20260507111527 51 318 0.0 2.0 0.00 0.01 0.00 83 1019.4
20260507110036 51 325 0.0 2.0 0.00 0.01 0.00 82 1019.1
20260507104529 51 321 0.0 1.0 0.00 0.01 0.00 82 1018.9
20260507103031 52 320 0.0 1.0 0.00 0.01 0.00 81 1018.6
20260507101533 52 336 0.0 1.0 0.00 0.01 0.00 81 1018.3
20260507100027 52 26 0.0 2.0 0.00 0.01 0.00 81 1017.9
20260507094534 52 35 0.0 4.0 0.00 0.01 0.00 81 1017.7
20260507093007 53 10 0.0 5.0 0.00 0.01 0.00 81 1017.5
20260507091506 53 5 2.0 4.0 0.00 0.01 0.00 81 1017.8
20260507090010 53 14 0.0 2.0 0.00 0.01 0.00 81 1017.8
20260507084507 53 13 0.0 5.0 0.00 0.01 0.00 81 1017.5
20260507083008 54 9 0.0 9.0 0.00 0.01 0.00 81 1017.4
20260507081507 54 352 1.0 8.0 0.00 0.01 0.00 80 1017.5
20260507080007 55 13 3.0 11.0 0.00 0.01 0.00 80 1017.4
20260507074508 55 31 2.0 9.0 0.00 0.01 0.00 81 1017.1
20260507073015 55 26 2.0 7.0 0.00 0.01 0.00 80 1016.8
20260507071514 55 44 4.0 11.0 0.00 0.01 0.00 80 1016.5
20260507070026 55 50 3.0 10.0 0.00 0.01 0.00 79 1016.6
20260507064516 55 42 4.0 9.0 0.00 0.01 0.00 79 1016.6
20260507063016 55 31 4.0 11.0 0.00 0.01 0.00 77 1017.0
20260507061516 56 53 4.0 12.0 0.00 0.01 0.00 76 1016.8
20260507060020 56 54 2.0 13.0 0.00 0.01 0.00 75 1016.9
20260507054515 57 61 10.0 16.0 0.00 0.01 0.00 75 1016.8
20260507053015 57 48 5.0 11.0 0.00 0.01 0.00 75 1016.8
20260507051524 57 34 8.0 13.0 0.00 0.01 0.00 75 1016.7
20260507050025 57 55 5.0 12.0 0.00 0.01 0.00 75 1016.8
20260507044517 58 53 6.0 13.0 0.00 0.01 0.01 75 1017.1
20260507043018 58 9 4.0 11.0 0.00 0.01 0.01 75 1017.3
20260507041518 58 33 3.0 11.0 0.00 0.01 0.01 76 1017.3
20260507040022 58 40 3.0 10.0 0.00 0.01 0.01 76 1017.2
20260507034520 58 28 3.0 10.0 0.00 0.01 0.01 76 1017.3
20260507033027 58 360 5.0 11.0 0.00 0.01 0.01 77 1017.3
20260507031524 58 24 5.0 10.0 0.00 0.01 0.01 78 1017.0
20260507030010 58 24 6.0 12.0 0.00 0.01 0.01 78 1016.7
20260507024512 58 22 4.0 13.0 0.00 0.01 0.01 78 1016.2
20260507023014 58 355 4.0 12.0 0.00 0.01 0.01 78 1016.0
20260507021504 58 5 5.0 11.0 0.00 0.01 0.01 78 1015.9
20260507020010 58 42 5.0 12.0 0.00 0.01 0.01 78 1015.6
20260507014512 58 360 5.0 10.0 0.00 0.01 0.01 78 1015.3
20260507013018 58 55 3.0 10.0 0.00 0.01 0.01 79 1014.9
20260507011529 58 360 2.0 9.0 0.01 0.01 0.01 79 1014.4
20260507010020 58 20 3.0 10.0 0.01 0.01 0.01 79 1014.4
20260507004507 58 42 2.0 9.0 0.01 0.01 0.01 78 1014.5
20260507003011 59 51 3.0 12.0 0.01 0.01 0.01 77 1014.3
20260507001525 60 18 5.0 9.0 0.00 0.00 0.00 75 1014.2
20260507000023 60 54 5.0 11.0 0.00 0.00 0.00 74 1014.0
20260506234520 61 46 5.0 9.0 0.00 0.00 0.00 74 1013.6
20260506233008 61 348 3.0 9.0 0.00 0.00 0.00 73 1013.9
20260506231511 61 328 4.0 8.0 0.00 0.00 0.00 74 1013.7
20260506230021 60 324 5.0 10.0 0.00 0.00 0.00 73 1013.8
20260506224520 60 315 4.0 11.0 0.00 0.00 0.00 73 1013.7
20260506223021 60 346 5.0 9.0 0.00 0.00 0.00 73 1013.3
20260506221509 60 328 4.0 10.0 0.00 0.00 0.00 73 1013.3
20260506220016 60 5 3.0 10.0 0.00 0.00 0.00 73 1013.2
20260506214521 60 19 6.0 11.0 0.00 0.00 0.00 73 1013.2
20260506213022 60 355 7.0 10.0 0.00 0.00 0.00 73 1013.3
20260506211524 59 340 5.0 11.0 0.00 0.00 0.00 74 1013.4
20260506210018 59 360 8.0 12.0 0.00 0.00 0.00 74 1013.2
20260506204503 59 5 7.0 12.0 0.00 0.00 0.00 74 1013.7
20260506203005 58 307 4.0 10.0 0.00 0.00 0.00 76 1013.8
20260506201509 57 351 3.0 7.0 0.00 0.00 0.00 78 1014.1
20260506200015 57 328 4.0 10.0 0.00 0.00 0.00 78 1014.4
20260506194516 56 320 4.0 11.0 0.00 0.00 0.00 78 1014.3
20260506193020 56 319 4.0 12.0 0.00 0.00 0.00 77 1014.4
20260506191506 57 346 7.0 12.0 0.00 0.00 0.00 76 1014.2
20260506190008 57 315 6.0 11.0 0.00 0.00 0.00 76 1014.5
20260506184514 57 319 4.0 12.0 0.00 0.00 0.00 76 1014.4
20260506183014 58 33 4.0 11.0 0.00 0.00 0.00 75 1014.0
20260506181524 57 5 3.0 6.0 0.00 0.00 0.00 76 1014.2
20260506180005 57 42 2.0 10.0 0.00 0.00 0.00 76 1014.3
20260506174507 58 18 5.0 17.0 0.00 0.00 0.00 75 1012.7
20260506173018 57 347 8.0 15.0 0.00 0.00 0.00 76 1012.3
20260506171520 57 44 5.0 11.0 0.00 0.00 0.00 77 1013.5
20260506170028 57 24 5.0 9.0 0.00 0.00 0.00 77 1014.0
20260506164509 56 5 1.0 9.0 0.00 0.00 0.00 77 1014.3
20260506163021 56 19 5.0 18.0 0.00 0.00 0.00 78 1013.7
20260506161516 55 22 7.0 14.0 0.00 0.00 0.00 79 1013.6
20260506160021 54 9 7.0 12.0 0.00 0.00 0.00 79 1013.9
20260506154527 54 313 4.0 11.0 0.00 0.00 0.00 79 1014.5
20260506153009 54 31 3.0 14.0 0.00 0.00 0.00 80 1014.4
20260506151512 54 332 5.0 12.0 0.00 0.00 0.00 79 1015.0
20260506150018 54 330 6.0 14.0 0.00 0.00 0.00 78 1015.6
20260506144529 54 336 8.0 16.0 0.00 0.00 0.00 77 1014.5
20260506143027 54 30 5.0 13.0 0.00 0.00 0.00 77 1014.3
20260506141530 55 347 8.0 14.0 0.00 0.00 0.00 77 1013.7
20260506140015 55 325 7.0 11.0 0.00 0.00 0.00 76 1013.5
20260506134521 55 334 7.0 15.0 0.00 0.00 0.00 76 1013.5
20260506133021 55 352 8.0 12.0 0.00 0.00 0.00 76 1013.0
20260506131532 55 352 7.0 17.0 0.00 0.00 0.00 76 1012.8
20260506130030 56 27 8.0 15.0 0.00 0.00 0.00 75 1012.9